Time,TemperatureF,DewpointF,PressureIn,WindDirection,WindDirectionDegrees,WindSpeedMPH,WindSpeedGustMPH,Humidity,HourlyPrecipIn,Conditions,Clouds,dailyrainin,SoftwareType,DateUTC
2013-02-19 00:02:00,39.0,-99.9,30.17,South,182,5.0,6.0,-999,-99.99,,,-99.99,,2013-02-19 05:02:00,
2013-02-19 00:13:00,39.0,-99.9,30.17,North,-999,-999.0,-999.0,-999,-99.99,,,-99.99,,2013-02-19 05:13:00,
2013-02-19 00:23:00,39.0,-99.9,30.17,North,-999,-999.0,-999.0,-999,-99.99,,,-99.99,,2013-02-19 05:23:00,
2013-02-19 00:33:00,38.0,-99.9,30.16,SSW,203,3.0,5.0,-999,-99.99,,,-99.99,,2013-02-19 05:33:00,
2013-02-19 00:43:00,39.0,-99.9,30.16,North,-999,-999.0,-999.0,-999,-99.99,,,-99.99,,2013-02-19 05:43:00,
2013-02-19 00:53:00,40.0,-99.9,30.16,North,-999,-999.0,-999.0,-999,-99.99,,,-99.99,,2013-02-19 05:53:00,
2013-02-19 01:03:00,40.0,-99.9,30.16,SSW,192,7.0,11.0,-999,-99.99,,,-99.99,,2013-02-19 06:03:00,
2013-02-19 01:12:00,41.0,-99.9,30.14,South,183,8.0,11.0,-999,-99.99,,,-99.99,,2013-02-19 06:12:00,
2013-02-19 01:22:00,41.0,-99.9,30.14,North,-999,-999.0,-999.0,-999,-99.99,,,-99.99,,2013-02-19 06:22:00,
2013-02-19 01:33:00,41.0,-99.9,30.13,South,188,8.0,11.0,-999,-99.99,,,-99.99,,2013-02-19 06:33:00,
2013-02-19 01:42:00,41.0,-99.9,30.12,SSW,194,6.0,11.0,-999,-99.99,,,-99.99,,2013-02-19 06:42:00,
2013-02-19 01:53:00,-999.0,-99.9,30.12,SSW,203,4.0,9.0,-999,-99.99,,,-99.99,,2013-02-19 06:53:00,
2013-02-19 02:02:00,40.0,-99.9,30.12,SSW,206,6.0,10.0,-999,-99.99,,,-99.99,,2013-02-19 07:02:00,
2013-02-19 02:12:00,40.0,-99.9,30.12,North,-999,-999.0,-999.0,-999,-99.99,,,-99.99,,2013-02-19 07:12:00,
2013-02-19 02:22:00,-999.0,-99.9,30.12,SSW,195,7.0,10.0,-999,-99.99,,,-99.99,,2013-02-19 07:22:00,
2013-02-19 02:33:00,40.0,-99.9,30.11,SSW,192,9.0,11.0,-999,-99.99,,,-99.99,,2013-02-19 07:33:00,
2013-02-19 02:42:00,-999.0,-99.9,30.11,SSW,195,8.0,12.0,-999,-99.99,,,-99.99,,2013-02-19 07:42:00,
2013-02-19 02:52:00,-999.0,-99.9,30.11,SSW,193,10.0,13.0,-999,-99.99,,,-99.99,,2013-02-19 07:52:00,
2013-02-19 03:02:00,40.0,-99.9,30.12,SSW,197,9.0,14.0,-999,-99.99,,,-99.99,,2013-02-19 08:02:00,
2013-02-19 03:12:00,40.0,-99.9,30.11,SSW,196,8.0,11.0,-999,-99.99,,,-99.99,,2013-02-19 08:12:00,
2013-02-19 03:22:00,40.0,-99.9,30.11,North,-999,-999.0,-999.0,-999,-99.99,,,-99.99,,2013-02-19 08:22:00,
2013-02-19 03:32:00,40.0,-99.9,30.10,South,183,13.0,16.0,-999,-99.99,,,-99.99,,2013-02-19 08:32:00,
2013-02-19 03:42:00,40.0,-99.9,30.09,North,-999,-999.0,-999.0,-999,-99.99,,,-99.99,,2013-02-19 08:42:00,
2013-02-19 03:52:00,-999.0,-99.9,30.09,South,186,12.0,15.0,-999,-99.99,,,-99.99,,2013-02-19 08:52:00,
2013-02-19 04:02:00,40.0,-99.9,30.08,South,183,13.0,16.0,-999,-99.99,,,-99.99,,2013-02-19 09:02:00,
2013-02-19 04:11:00,-999.0,-99.9,30.07,South,175,12.0,17.0,-999,-99.99,,,-99.99,,2013-02-19 09:11:00,
2013-02-19 04:22:00,40.0,-99.9,30.07,North,-999,-999.0,-999.0,-999,-99.99,,,-99.99,,2013-02-19 09:22:00,
2013-02-19 04:32:00,39.0,-99.9,30.07,South,186,12.0,15.0,-999,-99.99,,,-99.99,,2013-02-19 09:32:00,
2013-02-19 04:42:00,40.0,-99.9,30.06,South,182,12.0,17.0,-999,-99.99,,,-99.99,,2013-02-19 09:42:00,
2013-02-19 04:53:00,-999.0,-99.9,30.06,South,182,12.0,15.0,-999,-99.99,,,-99.99,,2013-02-19 09:53:00,
2013-02-19 05:02:00,40.0,-99.9,30.06,South,188,11.0,17.0,-999,-99.99,,,-99.99,,2013-02-19 10:02:00,
2013-02-19 05:11:00,-999.0,-99.9,30.05,South,188,9.0,12.0,-999,-99.99,,,-99.99,,2013-02-19 10:11:00,
2013-02-19 05:22:00,-999.0,-99.9,30.04,South,180,12.0,19.0,-999,-99.99,,,-99.99,,2013-02-19 10:22:00,
2013-02-19 05:32:00,40.0,-99.9,30.03,South,175,15.0,20.0,-999,-99.99,,,-99.99,,2013-02-19 10:32:00,
2013-02-19 05:42:00,40.0,-99.9,30.02,North,-999,-999.0,-999.0,-999,-99.99,,,-99.99,,2013-02-19 10:42:00,
2013-02-19 05:52:00,40.0,-99.9,30.03,North,-999,-999.0,-999.0,-999,-99.99,,,-99.99,,2013-02-19 10:52:00,
2013-02-19 06:02:00,39.0,-99.9,30.03,South,190,10.0,15.0,-999,-99.99,,,-99.99,,2013-02-19 11:02:00,
2013-02-19 06:12:00,39.0,-99.9,30.04,SSW,194,9.0,11.0,-999,-99.99,,,-99.99,,2013-02-19 11:12:00,
2013-02-19 06:22:00,-999.0,-99.9,30.03,South,183,11.0,14.0,-999,-99.99,,,-99.99,,2013-02-19 11:22:00,
2013-02-19 06:32:00,39.0,-99.9,30.03,South,184,12.0,15.0,-999,-99.99,,,-99.99,,2013-02-19 11:32:00,
2013-02-19 06:42:00,-999.0,-99.9,30.03,South,185,10.0,11.0,-999,-99.99,,,-99.99,,2013-02-19 11:42:00,
2013-02-19 06:52:00,39.0,-99.9,30.02,North,-999,-999.0,-999.0,-999,-99.99,,,-99.99,,2013-02-19 11:52:00,
2013-02-19 07:02:00,39.0,-99.9,30.03,South,190,12.0,14.0,-999,-99.99,,,-99.99,,2013-02-19 12:02:00,
2013-02-19 07:12:00,39.0,-99.9,30.02,North,-999,-999.0,-999.0,-999,-99.99,,,-99.99,,2013-02-19 12:12:00,
2013-02-19 07:22:00,40.0,-99.9,30.02,North,-999,-999.0,-999.0,-999,-99.99,,,-99.99,,2013-02-19 12:22:00,
2013-02-19 07:33:00,40.0,-99.9,30.01,South,184,16.0,19.0,-999,-99.99,,,-99.99,,2013-02-19 12:33:00,
2013-02-19 07:42:00,40.0,-99.9,30.01,North,-999,-999.0,-999.0,-999,-99.99,,,-99.99,,2013-02-19 12:42:00,
2013-02-19 07:53:00,40.0,-99.9,30.01,North,-999,-999.0,-999.0,-999,-99.99,,,-99.99,,2013-02-19 12:53:00,
2013-02-19 08:02:00,40.0,-99.9,30.00,South,184,13.0,16.0,-999,-99.99,,,-99.99,,2013-02-19 13:02:00,
2013-02-19 08:11:00,40.0,-99.9,29.99,South,183,14.0,19.0,-999,-99.99,,,-99.99,,2013-02-19 13:11:00,
2013-02-19 08:22:00,-999.0,-99.9,30.00,South,188,14.0,19.0,-999,-99.99,,,-99.99,,2013-02-19 13:22:00,
2013-02-19 08:32:00,40.0,-99.9,29.99,South,191,13.0,18.0,-999,-99.99,,,-99.99,,2013-02-19 13:32:00,
2013-02-19 08:42:00,40.0,-99.9,29.99,North,-999,-999.0,-999.0,-999,-99.99,,,-99.99,,2013-02-19 13:42:00,
2013-02-19 08:52:00,41.0,-99.9,30.00,North,-999,-999.0,-999.0,-999,-99.99,,,-99.99,,2013-02-19 13:52:00,
2013-02-19 09:02:00,41.0,-99.9,30.00,SSW,200,14.0,20.0,-999,-99.99,,,-99.99,,2013-02-19 14:02:00,
2013-02-19 09:12:00,41.0,-99.9,30.00,North,-999,-999.0,-999.0,-999,-99.99,,,-99.99,,2013-02-19 14:12:00,
2013-02-19 09:22:00,-999.0,-99.9,29.99,SSW,194,14.0,21.0,-999,-99.99,,,-99.99,,2013-02-19 14:22:00,
2013-02-19 09:33:00,41.0,-99.9,29.98,SSW,192,14.0,21.0,-999,-99.99,,,-99.99,,2013-02-19 14:33:00,
2013-02-19 09:42:00,41.0,-99.9,29.98,SSW,195,11.0,21.0,-999,-99.99,,,-99.99,,2013-02-19 14:42:00,
2013-02-19 09:52:00,41.0,-99.9,29.99,North,-999,-999.0,-999.0,-999,-99.99,,,-99.99,,2013-02-19 14:52:00,
2013-02-19 10:02:00,40.0,-99.9,29.98,SSW,204,14.0,19.0,-999,-99.99,,,-99.99,,2013-02-19 15:02:00,
2013-02-19 10:11:00,40.0,-99.9,29.98,North,-999,-999.0,-999.0,-999,-99.99,,,-99.99,,2013-02-19 15:11:00,
2013-02-19 10:22:00,-999.0,-99.9,29.97,South,183,15.0,21.0,-999,-99.99,,,-99.99,,2013-02-19 15:22:00,
2013-02-19 10:32:00,39.0,-99.9,29.96,South,184,13.0,17.0,-999,-99.99,,,-99.99,,2013-02-19 15:32:00,
2013-02-19 10:42:00,39.0,-99.9,29.96,North,-999,-999.0,-999.0,-999,-99.99,,,-99.99,,2013-02-19 15:42:00,
2013-02-19 10:52:00,-999.0,-99.9,29.96,SSW,192,12.0,15.0,-999,-99.99,,,-99.99,,2013-02-19 15:52:00,
2013-02-19 11:02:00,40.0,-99.9,29.96,SSW,192,11.0,13.0,-999,-99.99,,,-99.99,,2013-02-19 16:02:00,
2013-02-19 11:12:00,39.0,-99.9,29.95,South,183,8.0,12.0,-999,-99.99,,,-99.99,,2013-02-19 16:12:00,
2013-02-19 11:22:00,-999.0,-99.9,29.95,South,185,9.0,11.0,-999,-99.99,,,-99.99,,2013-02-19 16:22:00,
2013-02-19 11:32:00,40.0,-99.9,29.94,South,186,9.0,13.0,-999,-99.99,,,-99.99,,2013-02-19 16:32:00,
2013-02-19 11:42:00,-999.0,-99.9,29.94,South,189,10.0,13.0,-999,-99.99,,,-99.99,,2013-02-19 16:42:00,
2013-02-19 11:52:00,-999.0,-99.9,29.93,SSW,193,13.0,18.0,-999,-99.99,,,-99.99,,2013-02-19 16:52:00,
2013-02-19 12:01:00,40.0,-99.9,29.93,South,186,12.0,16.0,-999,-99.99,,,-99.99,,2013-02-19 17:01:00,
2013-02-19 12:11:00,-999.0,-99.9,29.92,South,186,14.0,18.0,-999,-99.99,,,-99.99,,2013-02-19 17:11:00,
2013-02-19 12:21:00,40.0,-99.9,29.92,North,-999,-999.0,-999.0,-999,-99.99,,,-99.99,,2013-02-19 17:21:00,
2013-02-19 12:32:00,40.0,-99.9,29.91,South,188,11.0,15.0,-999,-99.99,,,-99.99,,2013-02-19 17:32:00,
2013-02-19 12:42:00,40.0,-99.9,29.89,South,183,11.0,15.0,-999,-99.99,,,-99.99,,2013-02-19 17:42:00,
2013-02-19 12:52:00,-999.0,-99.9,29.88,South,184,13.0,15.0,-999,-99.99,,,-99.99,,2013-02-19 17:52:00,
2013-02-19 13:02:00,41.0,-99.9,29.87,South,182,13.0,16.0,-999,-99.99,,,-99.99,,2013-02-19 18:02:00,
2013-02-19 13:11:00,41.0,-99.9,29.85,South,188,12.0,17.0,-999,-99.99,,,-99.99,,2013-02-19 18:11:00,
2013-02-19 13:22:00,41.0,-99.9,29.85,North,-999,-999.0,-999.0,-999,-99.99,,,-99.99,,2013-02-19 18:22:00,
2013-02-19 13:32:00,42.0,-99.9,29.84,SSW,197,9.0,16.0,-999,-99.99,,,-99.99,,2013-02-19 18:32:00,
2013-02-19 13:42:00,-999.0,-99.9,29.83,South,189,11.0,13.0,-999,-99.99,,,-99.99,,2013-02-19 18:42:00,
2013-02-19 13:52:00,-999.0,-99.9,29.83,SSW,196,11.0,16.0,-999,-99.99,,,-99.99,,2013-02-19 18:52:00,
2013-02-19 14:01:00,42.0,-99.9,29.82,SSW,193,13.0,18.0,-999,-99.99,,,-99.99,,2013-02-19 19:01:00,
2013-02-19 14:11:00,43.0,-99.9,29.81,North,-999,-999.0,-999.0,-999,-99.99,,,-99.99,,2013-02-19 19:11:00,
2013-02-19 14:22:00,43.0,-99.9,29.80,North,-999,-999.0,-999.0,-999,-99.99,,,-99.99,,2013-02-19 19:22:00,
2013-02-19 14:32:00,43.0,-99.9,29.79,SSW,192,13.0,18.0,-999,-99.99,,,-99.99,,2013-02-19 19:32:00,
2013-02-19 14:42:00,43.0,-99.9,29.78,South,188,13.0,21.0,-999,-99.99,,,-99.99,,2013-02-19 19:42:00,
2013-02-19 14:52:00,43.0,-99.9,29.78,North,-999,-999.0,-999.0,-999,-99.99,,,-99.99,,2013-02-19 19:52:00,
2013-02-19 15:02:00,43.0,-99.9,29.77,SSW,195,13.0,20.0,-999,-99.99,,,-99.99,,2013-02-19 20:02:00,
2013-02-19 15:12:00,-999.0,-99.9,29.77,South,190,12.0,19.0,-999,-99.99,,,-99.99,,2013-02-19 20:12:00,
2013-02-19 15:22:00,-999.0,-99.9,29.77,SSW,204,12.0,15.0,-999,-99.99,,,-99.99,,2013-02-19 20:22:00,
2013-02-19 15:32:00,44.0,-99.9,29.76,SSW,203,13.0,19.0,-999,-99.99,,,-99.99,,2013-02-19 20:32:00,
2013-02-19 15:42:00,-999.0,-99.9,29.76,SSW,196,11.0,17.0,-999,-99.99,,,-99.99,,2013-02-19 20:42:00,
2013-02-19 15:52:00,44.0,-99.9,29.75,North,-999,-999.0,-999.0,-999,-99.99,,,-99.99,,2013-02-19 20:52:00,
2013-02-19 16:02:00,44.0,-99.9,29.75,SSW,193,12.0,15.0,-999,-99.99,,,-99.99,,2013-02-19 21:02:00,
2013-02-19 16:11:00,44.0,-99.9,29.74,SSW,195,12.0,16.0,-999,-99.99,,,-99.99,,2013-02-19 21:11:00,
2013-02-19 16:22:00,44.0,-99.9,29.74,North,-999,-999.0,-999.0,-999,-99.99,,,-99.99,,2013-02-19 21:22:00,
2013-02-19 16:32:00,44.0,-99.9,29.73,SSW,193,12.0,15.0,-999,-99.99,,,-99.99,,2013-02-19 21:32:00,
2013-02-19 16:42:00,-999.0,-99.9,29.73,SSW,192,12.0,15.0,-999,-99.99,,,-99.99,,2013-02-19 21:42:00,
2013-02-19 16:52:00,-999.0,-99.9,29.73,SSW,200,11.0,18.0,-999,-99.99,,,-99.99,,2013-02-19 21:52:00,
2013-02-19 17:02:00,45.0,-99.9,29.73,SSW,213,11.0,14.0,-999,-99.99,,,-99.99,,2013-02-19 22:02:00,
2013-02-19 17:11:00,45.0,-99.9,29.74,SW,219,13.0,18.0,-999,-99.99,,,-99.99,,2013-02-19 22:11:00,
2013-02-19 17:22:00,45.0,-99.9,29.74,SW,219,13.0,18.0,-999,-99.99,,,-99.99,,2013-02-19 22:22:00,
2013-02-19 17:32:00,45.0,-99.9,29.74,SW,219,13.0,18.0,-999,-99.99,,,-99.99,,2013-02-19 22:32:00,
2013-02-19 17:42:00,45.0,-99.9,29.74,SW,219,13.0,18.0,-999,-99.99,,,-99.99,,2013-02-19 22:42:00,
2013-02-19 17:52:00,45.0,-99.9,29.74,North,-999,-999.0,-999.0,-999,-99.99,,,-99.99,,2013-02-19 22:52:00,
2013-02-19 19:22:00,-999.0,-99.9,29.77,SW,226,7.0,11.0,-999,-99.99,,,-99.99,,2013-02-20 00:22:00,
2013-02-19 19:32:00,45.0,-99.9,29.78,SW,222,4.0,9.0,-999,-99.99,,,-99.99,,2013-02-20 00:32:00,
2013-02-19 19:42:00,-999.0,-99.9,29.78,SW,223,4.0,9.0,-999,-99.99,,,-99.99,,2013-02-20 00:42:00,
2013-02-19 19:52:00,-999.0,-99.9,29.78,SW,223,5.0,9.0,-999,-99.99,,,-99.99,,2013-02-20 00:52:00,
2013-02-19 20:02:00,45.0,-99.9,29.79,WSW,256,6.0,8.0,-999,-99.99,,,-99.99,,2013-02-20 01:02:00,
2013-02-19 20:11:00,45.0,-99.9,29.79,North,-999,-999.0,-999.0,-999,-99.99,,,-99.99,,2013-02-20 01:11:00,
2013-02-19 20:22:00,45.0,-99.9,29.79,North,-999,-999.0,-999.0,-999,-99.99,,,-99.99,,2013-02-20 01:22:00,
2013-02-19 20:32:00,44.0,-99.9,29.80,WSW,254,4.0,5.0,-999,-99.99,,,-99.99,,2013-02-20 01:32:00,
2013-02-19 20:42:00,43.0,-99.9,29.81,NW,323,4.0,6.0,-999,-99.99,,,-99.99,,2013-02-20 01:42:00,
2013-02-19 20:52:00,-999.0,-99.9,29.81,NW,323,5.0,6.0,-999,-99.99,,,-99.99,,2013-02-20 01:52:00,
2013-02-19 21:02:00,43.0,-99.9,29.81,West,272,2.0,7.0,-999,-99.99,,,-99.99,,2013-02-20 02:02:00,
2013-02-19 21:11:00,-999.0,-99.9,29.81,West,270,6.0,10.0,-999,-99.99,,,-99.99,,2013-02-20 02:11:00,
2013-02-19 21:22:00,-999.0,-99.9,29.81,WNW,303,8.0,13.0,-999,-99.99,,,-99.99,,2013-02-20 02:22:00,
2013-02-19 21:32:00,44.0,-99.9,29.82,NW,311,8.0,12.0,-999,-99.99,,,-99.99,,2013-02-20 02:32:00,
2013-02-19 21:42:00,-999.0,-99.9,29.82,NW,321,8.0,12.0,-999,-99.99,,,-99.99,,2013-02-20 02:42:00,
2013-02-19 21:52:00,-999.0,-99.9,29.83,NW,314,8.0,10.0,-999,-99.99,,,-99.99,,2013-02-20 02:52:00,
2013-02-19 22:02:00,43.0,-99.9,29.83,NW,313,10.0,13.0,-999,-99.99,,,-99.99,,2013-02-20 03:02:00,
2013-02-19 22:12:00,43.0,-99.9,29.83,NW,316,11.0,18.0,-999,-99.99,,,-99.99,,2013-02-20 03:12:00,
2013-02-19 22:22:00,43.0,-99.9,29.83,North,-999,-999.0,-999.0,-999,-99.99,,,-99.99,,2013-02-20 03:22:00,
2013-02-19 22:32:00,42.0,-99.9,29.83,NW,311,10.0,14.0,-999,-99.99,,,-99.99,,2013-02-20 03:32:00,
2013-02-19 22:42:00,-999.0,-99.9,29.83,NW,313,10.0,16.0,-999,-99.99,,,-99.99,,2013-02-20 03:42:00,
2013-02-19 22:52:00,42.0,-99.9,29.84,North,-999,-999.0,-999.0,-999,-99.99,,,-99.99,,2013-02-20 03:52:00,
2013-02-19 23:02:00,42.0,-99.9,29.84,NW,314,7.0,11.0,-999,-99.99,,,-99.99,,2013-02-20 04:02:00,
2013-02-19 23:11:00,42.0,-99.9,29.84,North,-999,-999.0,-999.0,-999,-99.99,,,-99.99,,2013-02-20 04:11:00,
2013-02-19 23:22:00,42.0,-99.9,29.84,North,-999,-999.0,-999.0,-999,-99.99,,,-99.99,,2013-02-20 04:22:00,
2013-02-19 23:32:00,42.0,-99.9,29.85,NW,322,14.0,19.0,-999,-99.99,,,-99.99,,2013-02-20 04:32:00,
2013-02-19 23:42:00,41.0,-99.9,29.85,NW,317,10.0,15.0,-999,-99.99,,,-99.99,,2013-02-20 04:42:00,
2013-02-19 23:52:00,-999.0,-99.9,29.85,NW,309,11.0,16.0,-999,-99.99,,,-99.99,,2013-02-20 04:52:00,